Weather History for Harvey, ND

Change the Weather History Date:

Sunday, November 3, 2013

  Actual Average (KRUG) Record (KRUG)
Temperature  
Mean Temperature 40 °F -  
Max Temperature 46 °F 41 °F 71 °F (1965)
Min Temperature 35 °F 23 °F -4 °F (1991)
Degree Days  
Heating Degree Days 24    
Moisture  
Dew Point 33 °F    
Average Humidity 73    
Maximum Humidity 87    
Minimum Humidity 57    
Precipitation  
Precipitation 0.00 in - - ()
Sea Level Pressure  
Sea Level Pressure 29.61 in    
Wind  
Wind Speed 12 mph (SSE)    
Max Wind Speed 21 mph    
Max Gust Speed 29 mph    
Visibility 10 miles    
Events      
Averages and records for this station are not official NWS values.
T = Trace of Precipitation, MM = Missing Value Source: NWS Daily Summary

Daily Weather History Graph

Daily Weather History Graph

Search for Another Location

Airport:

Trip Planner

Search our weather history database for the weather conditions in past years. The results will help you decide how hot, cold, wet, or windy it might be!

Date:

Astronomy

Nov. 03, 2013 Rise Set
Actual Time 7:27 AM CST 5:18 PM CST
Civil Twilight 6:55 AM CST 5:50 PM CST
Nautical Twilight 6:18 AM CST 6:27 PM CST
Astronomical Twilight 5:42 AM CST 7:03 PM CST
Moon 7:34 AM CST (11/3) 5:31 PM CST (11/3)
Length of Visible Light 10h 55m
Length of Day
9h 50m
Waxing Crescent, 0% of the Moon is Illuminated
Nov 3
Waxing Crescent
Nov 9
First Quarter
Nov 17
Full
Nov 25
Last Quarter
Dec 2
New

Hourly Weather History & Observations

Time (CST) Temp. Windchill Dew Point Humidity Pressure Visibility Wind Dir Wind Speed Gust Speed Precip Events Conditions
12:15 AM 41.0 °F 34.7 °F 32.0 °F 70% 29.80 in 10.0 mi SE 10.4 mph - N/A   Mostly Cloudy
12:35 AM 41.0 °F 34.3 °F 32.0 °F 70% 29.80 in 10.0 mi SE 11.5 mph - N/A   Mostly Cloudy
12:55 AM 39.2 °F 32.5 °F 32.0 °F 75% 29.79 in 10.0 mi SE 10.4 mph - N/A   Scattered Clouds
1:15 AM 39.2 °F 33.0 °F 32.0 °F 75% 29.79 in 10.0 mi SE 9.2 mph - N/A   Clear
1:35 AM 37.4 °F 30.8 °F 32.0 °F 81% 29.79 in 10.0 mi ESE 9.2 mph - N/A   Clear
1:55 AM 37.4 °F 30.3 °F 32.0 °F 81% 29.77 in 10.0 mi ESE 10.4 mph - N/A   Clear
1:15 AM 37.4 °F 29.8 °F 32.0 °F 81% 29.77 in 10.0 mi ESE 11.5 mph - N/A   Clear
1:35 AM 37.4 °F 29.3 °F 32.0 °F 81% 29.76 in 10.0 mi ESE 12.7 mph 18.4 mph N/A   Clear
1:55 AM 37.4 °F 28.9 °F 32.0 °F 81% 29.75 in 10.0 mi ESE 13.8 mph - N/A   Clear
2:15 AM 35.6 °F 26.6 °F 32.0 °F 87% 29.75 in 10.0 mi ESE 13.8 mph - N/A   Clear
2:35 AM 35.6 °F 25.9 °F 32.0 °F 87% 29.72 in 10.0 mi ESE 16.1 mph - N/A   Clear
2:55 AM 35.6 °F 25.9 °F 32.0 °F 87% 29.71 in 10.0 mi ESE 16.1 mph 23.0 mph N/A   Clear
3:15 AM 37.4 °F 28.5 °F 32.0 °F 81% 29.70 in 10.0 mi ESE 15.0 mph 20.7 mph N/A   Clear
3:35 AM 37.4 °F 28.2 °F 32.0 °F 81% 29.68 in 10.0 mi ESE 16.1 mph 23.0 mph N/A   Clear
3:55 AM 37.4 °F 27.8 °F 32.0 °F 81% 29.67 in 10.0 mi ESE 17.3 mph 24.2 mph N/A   Clear
4:15 AM 37.4 °F 26.9 °F 32.0 °F 81% 29.66 in 10.0 mi ESE 20.7 mph 25.3 mph N/A   Clear
4:35 AM 37.4 °F 27.8 °F 32.0 °F 81% 29.65 in 10.0 mi ESE 17.3 mph 28.8 mph N/A   Clear
4:55 AM 37.4 °F 27.5 °F 32.0 °F 81% 29.64 in 10.0 mi ESE 18.4 mph 25.3 mph N/A   Clear
5:15 AM 37.4 °F 28.2 °F 32.0 °F 81% 29.64 in 10.0 mi SE 16.1 mph 24.2 mph N/A   Clear
5:35 AM 37.4 °F 28.5 °F 32.0 °F 81% 29.64 in 10.0 mi SE 15.0 mph 19.6 mph N/A   Clear
5:55 AM 37.4 °F 28.5 °F 32.0 °F 81% 29.63 in 10.0 mi SE 15.0 mph 24.2 mph N/A   Clear
6:15 AM 37.4 °F 28.9 °F 32.0 °F 81% 29.62 in 10.0 mi SE 13.8 mph 24.2 mph N/A   Clear
6:35 AM 37.4 °F 28.9 °F 32.0 °F 81% 29.61 in 10.0 mi ESE 13.8 mph 18.4 mph N/A   Clear
6:55 AM 37.4 °F 27.5 °F 32.0 °F 81% 29.60 in 10.0 mi ESE 18.4 mph - N/A   Clear
7:15 AM 37.4 °F 28.9 °F 32.0 °F 81% 29.59 in 10.0 mi SE 13.8 mph 20.7 mph N/A   Clear
7:35 AM 37.4 °F 28.9 °F 32.0 °F 81% 29.59 in 10.0 mi ESE 13.8 mph 19.6 mph N/A   Clear
7:55 AM 35.6 °F 25.5 °F 32.0 °F 87% 29.58 in 10.0 mi ESE 17.3 mph 21.9 mph N/A   Clear
8:15 AM 37.4 °F 28.5 °F 32.0 °F 81% 29.58 in 10.0 mi SE 15.0 mph 20.7 mph N/A   Clear
8:35 AM 37.4 °F 29.3 °F 32.0 °F 81% 29.58 in 10.0 mi SE 12.7 mph 20.7 mph N/A   Clear
8:55 AM 37.4 °F 28.2 °F 32.0 °F 81% 29.58 in 10.0 mi SE 16.1 mph 20.7 mph N/A   Clear
9:15 AM 39.2 °F 31.2 °F 32.0 °F 75% 29.57 in 10.0 mi SE 13.8 mph 24.2 mph N/A   Clear
9:35 AM 39.2 °F 30.5 °F 32.0 °F 75% 29.55 in 10.0 mi SE 16.1 mph 24.2 mph N/A   Clear
9:55 AM 41.0 °F 32.8 °F 32.0 °F 70% 29.54 in 10.0 mi SE 16.1 mph 26.5 mph N/A   Clear
10:15 AM 41.0 °F 33.5 °F 32.0 °F 70% 29.57 in 10.0 mi SSE 13.8 mph 19.6 mph N/A   Clear
10:35 AM 41.0 °F 33.9 °F 32.0 °F 70% 29.56 in 10.0 mi SSE 12.7 mph - N/A   Clear
10:55 AM 42.8 °F 35.4 °F 32.0 °F 66% 29.56 in 10.0 mi SSE 15.0 mph - N/A   Clear
11:15 AM 44.6 °F 38.1 °F 32.0 °F 61% 29.55 in 10.0 mi SSE 13.8 mph 20.7 mph N/A   Clear
11:35 AM 44.6 °F 38.4 °F 32.0 °F 61% 29.54 in 10.0 mi SSE 12.7 mph - N/A   Clear
11:55 AM 44.6 °F 37.8 °F 32.0 °F 61% 29.54 in 10.0 mi SSE 15.0 mph - N/A   Clear
12:15 PM 44.6 °F 38.8 °F 32.0 °F 61% 29.53 in 10.0 mi SSE 11.5 mph 17.3 mph N/A   Clear
12:35 PM 44.6 °F 38.1 °F 32.0 °F 61% 29.53 in 10.0 mi SSE 13.8 mph - N/A   Clear
12:55 PM 46.4 °F 40.7 °F 32.0 °F 57% 29.53 in 10.0 mi SSE 12.7 mph - N/A   Clear
1:15 PM 46.4 °F 41.1 °F 33.8 °F 62% 29.52 in 10.0 mi SE 11.5 mph 18.4 mph N/A   Clear
1:35 PM 46.4 °F 40.7 °F 32.0 °F 57% 29.53 in 10.0 mi South 12.7 mph - N/A   Clear
1:55 PM 46.4 °F 41.5 °F 32.0 °F 57% 29.53 in 10.0 mi South 10.4 mph - N/A   Clear
2:15 PM 46.4 °F 41.5 °F 32.0 °F 57% 29.53 in 10.0 mi South 10.4 mph - N/A   Clear
2:35 PM 46.4 °F 41.9 °F 32.0 °F 57% 29.53 in 10.0 mi SSE 9.2 mph - N/A   Clear
2:55 PM 46.4 °F 42.4 °F 32.0 °F 57% 29.54 in 10.0 mi South 8.1 mph - N/A   Clear
3:15 PM 46.4 °F 41.9 °F 33.8 °F 62% 29.54 in 10.0 mi South 9.2 mph - N/A   Clear
3:35 PM 46.4 °F 42.4 °F 33.8 °F 62% 29.55 in 10.0 mi South 8.1 mph - N/A   Clear
3:55 PM 46.4 °F 43.5 °F 33.8 °F 62% 29.56 in 10.0 mi SSW 5.8 mph - N/A   Clear
4:15 PM 46.4 °F 43.5 °F 33.8 °F 62% 29.56 in 10.0 mi SSW 5.8 mph - N/A   Clear
4:35 PM 44.6 °F 41.4 °F 35.6 °F 71% 29.57 in 10.0 mi SSW 5.8 mph - N/A   Clear
4:55 PM 44.6 °F 40.7 °F 35.6 °F 71% 29.57 in 10.0 mi SW 6.9 mph - N/A   Clear
5:15 PM 42.8 °F 39.3 °F 35.6 °F 76% 29.57 in 10.0 mi WSW 5.8 mph - N/A   Clear
5:35 PM 41.0 °F 37.1 °F 33.8 °F 76% 29.58 in 10.0 mi SSW 5.8 mph - N/A   Clear
5:55 PM 41.0 °F 38.0 °F 33.8 °F 76% 29.58 in 10.0 mi SW 4.6 mph - N/A   Clear
6:15 PM 41.0 °F 37.1 °F 33.8 °F 76% 29.58 in 10.0 mi WSW 5.8 mph - N/A   Clear
6:35 PM 39.2 °F 34.2 °F 33.8 °F 81% 29.59 in 10.0 mi WSW 6.9 mph - N/A   Mostly Cloudy
6:55 PM 39.2 °F - 33.8 °F 81% 29.59 in 10.0 mi Calm Calm - N/A   Scattered Clouds
7:15 PM 39.2 °F 35.9 °F 33.8 °F 81% 29.59 in 10.0 mi WSW 4.6 mph - N/A   Partly Cloudy
7:35 PM 39.2 °F 33.0 °F 33.8 °F 81% 29.60 in 10.0 mi WSW 9.2 mph - N/A   Scattered Clouds
7:55 PM 41.0 °F 36.4 °F 33.8 °F 76% 29.60 in 10.0 mi West 6.9 mph - N/A   Partly Cloudy
8:15 PM 41.0 °F 34.7 °F 33.8 °F 76% 29.59 in 10.0 mi West 10.4 mph - N/A   Clear
8:35 PM 41.0 °F 34.7 °F 33.8 °F 76% 29.59 in 10.0 mi West 10.4 mph - N/A   Clear
8:55 PM 42.8 °F 36.2 °F 33.8 °F 70% 29.59 in 10.0 mi West 12.7 mph - N/A   Clear
9:15 PM 44.6 °F 37.8 °F 35.6 °F 71% 29.59 in 10.0 mi West 15.0 mph 20.7 mph N/A   Clear
9:35 PM 44.6 °F 38.4 °F 35.6 °F 71% 29.61 in 10.0 mi West 12.7 mph - N/A   Partly Cloudy
9:55 PM 44.6 °F 37.8 °F 33.8 °F 66% 29.61 in 10.0 mi WNW 15.0 mph - N/A   Mostly Cloudy
10:15 PM 44.6 °F 38.4 °F 32.0 °F 61% 29.62 in 10.0 mi WNW 12.7 mph 19.6 mph N/A   Overcast
10:35 PM 42.8 °F 36.2 °F 32.0 °F 66% 29.62 in 10.0 mi WNW 12.7 mph - N/A   Mostly Cloudy
10:55 PM 41.0 °F 34.7 °F 32.0 °F 70% 29.62 in 10.0 mi WNW 10.4 mph - N/A   Mostly Cloudy